www.pogodaiklimat.ru

Погода и климат >> Архив погоды >> Мексика >> Manzanillo


ПОГОДА в Manzanillo

  • Прогноз погоды в Manzanillo
  • Монитор погоды в Manzanillo
  • Климат города

АРХИВ ПОГОДЫ в Manzanillo

Время (UTC), дата Ветер
(напр.,м/с)
 
Видим.   Явления Облачность Т
(С)
Тd
(С)
f
(%)
Тe
(С)
Тes
(С)
Комфортность P
(гПа)
Po
(гПа)
Тmin
(С)
Tmax
(С)
R
(мм)
R24
(мм)
S
(см)
09 19.06 З 2 6000 м мгла {туман} ясно +27.6 +24.7 84 +39 +39 очень
душно
1009.3 1008.9
12 19.06 З 1 6000 м мгла {туман} ясно +26.6 +24.2 87 +37 +37 очень
душно
1008.3 1007.9 +26.6 +31.8
18 19.06 З 2 6000 м мгла {туман} 4/0 1500 м
[As op]
+31.2 +23.7 64 +42 +56 опасность
перегрева
1009.6 1009.2 +23.7 +31.2
21 19.06 ЮЗ 4 7000 м мгла {туман} 3/3 600 м
[Cb cap]
+31.1 +25.7 73 +46 +54 опасность
перегрева
1008.0 1007.6
00 20.06 ЮЗ 3 7000 м мгла {туман} 8/8 300 м
[Sc]
+29.2 +24.4 75 +41 +41 опасность
перегрева
1008.6 1008.2 +26.2 +32.6
03 20.06 З 2 6000 м мгла {туман} 8/8 600 м
[St]
+28.0 +24.7 82 +40 +40 очень
душно
1010.6 1010.2
06 20.06 З 2 6000 м мгла {туман} 9/9 300 м
[Sc]
+27.9 +24.8 83 +40 +40 очень
душно
1011.4 1011.0 +26.2 +32.6
09 20.06 штиль 0 6000 м мгла {туман} 5/5 600 м
[Sc]
+27.6 +24.7 84 +39 +39 очень
душно
1009.1 1008.7
12 20.06 штиль 0 6000 м мгла {туман} 5/5 600 м
[Sc]
+26.8 +24.4 87 +38 +38 очень
душно
1010.1 1009.7 +26.8 +32.6
15 20.06 С 3 7000 м мгла {туман} ясно +29.7 +25.1 76 +43 +49 опасность
перегрева
1010.4 1010.0
18 20.06 З 3 7000 м мгла {туман} 9/0 2000 м
[Ac trans Ci fib]
+30.8 +24.4 69 +43 +52 опасность
перегрева
1011.2 1010.8 +26.4 +31.4
21 20.06 Ю 3 6000 м мгла {туман} ясно +30.7 +25.7 75 +46 +60 опасность
перегрева
1008.9 1008.5
00 21.06 Ю 3 6000 м мгла {туман} ясно +29.4 +24.7 76 +42 +44 опасность
перегрева
1007.7 1007.3 +26.4 +31.5
03 21.06 З 3 6000 м мгла {туман} ясно +27.7 +24.5 83 +39 +39 очень
душно
1009.6 1009.2
06 21.06 З 1 6000 м мгла {туман} ясно +27.7 +24.5 83 +39 +39 очень
душно
1010.4 1010.0 +26.4 +31.5
09 21.06 штиль 0 6000 м мгла {туман} ясно +26.8 +25.2 91 +39 +39 очень
душно
1011.7 1011.3
12 21.06 С 2 6000 м мгла {туман} ясно +26.2 +24.5 90 +37 +37 очень
душно
1010.5 1010.1 +26.2 +31.5
15 21.06 С 1 6000 м мгла {туман} ясно +30.1 +23.8 69 +41 +50 опасность
перегрева
1009.6 1009.3
18 21.06 ЮЗ 2 6000 м мгла {туман} ясно +32.1 +24.2 63 +44 +65 опасность
перегрева
1010.8 1010.4 +25.8 +32.6
21 21.06 ЮЗ 3 6000 м мгла {туман} ясно +31.7 +24.8 67 +45 +59 опасность
перегрева
1008.4 1008.0
00 22.06 ЮЗ 3 6000 м мгла {туман} 3/0 2000 м
[Ac trans]
+30.6 +23.7 67 +42 +44 опасность
перегрева
1007.5 1007.1 +25.8 +33.0
03 22.06 З 2 6000 м мгла {туман} 1/0 2000 м
[Ac trans]
+28.4 +24.4 79 +40 +40 очень
душно
1010.1 1009.7
06 22.06 З 2 6000 м мгла {туман} 1/0 2000 м
[Ac trans]
+28.2 +24.2 79 +39 +39 очень
душно
1011.5 1011.1 +25.8 +33.0
09 22.06 штиль 0 6000 м мгла {туман} ясно +27.4 +25.0 87 +39 +39 очень
душно
1010.4 1010.0
12 22.06 З 3 6000 м мгла {туман} 5/5 600 м
[Sc]
+27.0 +24.3 85 +38 +38 очень
душно
1009.9 1009.5 +27.0 +33.0
15 22.06 СВ 1 6000 м мгла {туман} ясно +30.0 +24.8 74 +43 +52 опасность
перегрева
1011.1 1010.7
18 22.06 З 3 6000 м мгла {туман} ясно +32.1 +25.7 69 +47 +64 опасность
перегрева
1011.4 1011.0 +26.5 +33.1
21 22.06 З 4 6000 м мгла {туман} ясно +31.6 +24.7 67 +45 +56 опасность
перегрева
1008.8 1008.4
00 23.06 З 2 6000 м мгла {туман} 5/3 300 м
[Sc Ac trans]
+30.4 +26.0 77 +45 +47 опасность
перегрева
1008.3 1007.9 +26.5 +33.1
03 23.06 З 2 6000 м мгла {туман} ясно +28.6 +25.4 83 +42 +42 опасность
перегрева
1009.4 1009.0
09 23.06 З 1 6000 м мгла {туман} ясно +27.9 +25.1 85 +40 +40 очень
душно
1012.4 1012.0
12 23.06 штиль 0 6000 м мгла {туман} ясно +26.6 +25.0 91 +38 +38 очень
душно
1010.9 1010.5 +26.4 +33.1
15 23.06 В 2 6000 м мгла {туман} ясно +29.6 +24.2 73 +41 +49 опасность
перегрева
1010.7 1010.3
18 23.06 З 3 6000 м мгла {туман} ясно +31.8 +24.6 66 +45 +62 опасность
перегрева
1009.9 1009.5 +25.9 +32.3
00 24.06 ЮЗ 3 6000 м мгла {туман} 9/8 600 м
[Sc Ci fib]
+29.1 +25.0 79 +42 +42 опасность
перегрева
1007.0 1006.6 +25.9 +32.4
03 24.06 З 3 6000 м мгла {туман} 3/0
[Ci fib]
+28.4 +25.2 83 +41 +41 опасность
перегрева
1008.1 1007.7
06 24.06 ЮЗ 2 6000 м мгла {туман} ясно +28.0 +25.3 85 +41 +41 опасность
перегрева
1010.5 1010.1 +25.9 +32.4
09 24.06 Ю 1 6000 м мгла {туман} 4/0 1500 м
[Ac trans]
+27.6 +24.7 84 +39 +39 очень
душно
1009.3 1008.9
12 24.06 штиль 0 6000 м мгла {туман} 3/3 600 м
[Sc]
+27.5 +25.0 86 +39 +39 очень
душно
1009.8 1009.4 +27.4 +32.4
15 24.06 В 3 6000 м мгла {туман} 9/9 600 м
[Sc]
+28.3 +26.1 88 +43 +43 опасность
перегрева
1011.4 1011.0
18 24.06 Ю 3 6000 м мгла {туман} 4/4 600 м
[Sc]
+32.0 +25.4 68 +46 +57 опасность
перегрева
1011.6 1011.2 +27.2 +33.2
21 24.06 С 4 7000 м мгла {туман} 1/1 600 м
[Sc]
+30.4 +25.7 76 +45 +55 опасность
перегрева
1010.1 1009.7
00 25.06 З 2 7000 м мгла {туман} 1/1 300 м
[Cb cap]
+29.6 +24.8 75 +42 +45 опасность
перегрева
1010.2 1009.8 +27.2 +33.3
03 25.06 З 2 6000 м мгла {туман} ясно +27.6 +24.4 83 +39 +39 очень
душно
1011.8 1011.4
06 25.06 З 2 6000 м мгла {туман} 1/0 2000 м
[Ac lent]
+27.5 +24.4 83 +39 +39 очень
душно
1012.3 1011.9 +27.2 +33.3
09 25.06 СВ 3 6000 м мгла {туман} 10/0 1500 м
[As op]
+27.4 +24.7 85 +39 +39 очень
душно
1013.1 1012.7
12 25.06 СЗ 2 6000 м в посл. час морось {дождь} 10/0 1500 м
[As op]
+24.6 +23.2 92 +33 +33 очень
душно
1012.1 1011.7 21
15 25.06 В 2 6000 м мгла {туман} 3/0 1500 м
[As op]
+29.1 +23.7 73 +40 +45 очень
душно
1012.1 1012.7
18 25.06 З 2 6000 м мгла {туман} 9/0 1500 м
[As op]
+30.5 +24.8 72 +44 +49 опасность
перегрева
1013.7 1013.3 +24.1 +31.3
21 25.06 ЮЗ 3 7000 м мгла {туман} 8/3 600 м
[Cb cap Ac trans Ci fib]
+31.0 +25.6 73 +46 +52 опасность
перегрева
1011.1 1010.7
00 26.06 ЮЗ 2 7000 м мгла {туман} 9/6 300 м
[Cb cap As op]
+29.8 +25.0 75 +43 +43 опасность
перегрева
1012.1 1011.7 +24.1 +31.5
03 26.06 Ю 3 6000 м мгла {туман} 10/8 600 м
[Frnb As op]
+26.8 +25.2 91 +39 +39 очень
душно
1013.3 1012.9

 

Местоположение метеостанции Manzanillo (Мексика): широта 19.05 долгота -104.30 высота над уровнем моря 3 м.

В архиве по умолчанию представлена погода в Manzanillo за последнюю неделю. Архивные данные за месяц целиком и за предыдущие месяцы, начиная с января 2011 года, Вы можете получить, выбрав интересующий диапазон дат из раскрывающегося списка и нажав кнопку "Ввод!".

Внимание! Время в таблицах - всемирное. Для получения местного времени необходимо прибавить поправку, которая в Manzanillo равна -6 ч.

Смотрите также архив погоды в соседних городах и на ближайших метеорологических станциях:

Погода в Colima (Мексика) (88 км)
Погода в Ciudad Guzman (Мексика) (120 км)
Погода в Guadalajara (Мексика) (208 км)
Погода в Zamora (Мексика) (234 км)
Погода в Tepic (Мексика) (280 км)
Погода в Morelia (Мексика) (343 км)
Погода в Colotlan (Мексика) (356 км)
Погода в Lagos De Moreno (Мексика) (357 км)
Погода в Aguascalientes (Мексика) (377 км)
Погода в Huejucar (Мексика) (383 км)

Пояснения к столбцам:

Ветер - указаны скорость ветра в м/с - средняя за 10 мин, порывы в срок и между сроками (в фигурных скобках) и направление, откуда дует ветер: С - северный, СВ - северо-восточный, В - восточный, ЮВ - юго-восточный, Ю - южный, ЮЗ - юго-западный, З - западный, СЗ - северо-западный.
Видимость - горизонтальная дальность видимости в метрах или километрах. При видимости от 1 до 10 км при отсутствии осадков обычно наблюдается дымка, при ухудшении видимости до 1 км и менее - туман. В сухую погоду видимость может ухудшаться дымом, пылью или мглою.
Явления - указаны атмосферные явления, наблюдавшиеся в срок или в последний час перед сроком; фигурными скобками обозначены явления, наблюдавшиеся между сроками (за 1-3 часа до срока); квадратными скобками обозначены град или гололедные отложения с указанием их диаметра в мм.
Облачность - указаны через наклонную черту общая и нижняя облачность в баллах и высота нижней границы облаков в метрах; квадратными скобками обозначены формы облаков: Ci - перистые, Cs - перисто-слоистые, Cc - перисто-кучевые, Ac - высококучевые, As - высокослоистые, Sc - слоисто-кучевые, Ns - слоисто-дождевые, Cu - кучевые, Cb - кучево-дождевые. Подробнее классификацию облаков см. в Атласе облаков (PDF).
T - Температура воздуха - температура, измеренная на высоте 2 м над землей.
Td - Температура точки росы - температура, при понижении до которой содержащийся в воздухе водяной пар достигнет насыщения.
f - Относительная влажность воздуха - влажноcть воздуха, измеренная на высоте 2 м над землей.
Te - Эффективная температура - температура, которую ощущает одетый по сезону человек в тени. Характеристика душности погоды. При расчете учитывается влияние влажности воздуха и скорости ветра на теплоощущения человека.
Tes - Эффективная температура на солнце - температура, которую ощущает человек, с поправкой на солнечный нагрев. Характеристика знойности погоды. Зависит от высоты солнца над горизонтом, облачности и скорости ветра. Ночью, в пасмурную погоду, а также при ветре 12 м/с и более поправка равна нулю.
P - Атмосферное давление - приведенное к уровню моря атмосферное давление.
Po - Атмосферное давление - измеренное на уровне метеостанции атмосферное давление.
Tmin - Минимальная температура - минимум температуры воздуха на высоте 2 м над землей.
Tmax - Максимальная температура - максимум температуры воздуха на высоте 2 м над землей.
R - Количество осадков - Количество выпавших осадков за период времени, мм. При наведении курсора мыши на число - период времени, за который выпало указанное количество осадков.
R24 - Количество осадков - Количество выпавших осадков за 24 часа, мм.
S - Снежный покров - Высота снежного покрова, см. При наведении курсора мыши на число - состояние снежного покрова и степень покрытия местности в баллах.